Location: Newark
(11.2914°S, 14.4718°E)
Time: 14:08:08
(UTC+00:00)

Vanguard 2 - Pass Details

Date: 19 September 2019
Orbit: 554 x 2937 km, 32.9° (Epoch: 15 October)

Event Time Altitude Azimuth Distance (km) Brightness Sun altitude
Rises 17:54:43 0° 232° (SW) 4,972 12.6 -14.7°
Reaches altitude 10° 17:58:10 10° 222° (SW) 4,309 12.0 -15.5°
Maximum altitude 18:09:14 33° 162° (SSE) 3,604 10.7 -18.2°
Enters shadow 18:19:15 19° 115° (ESE) 4,875 11.1 -20.7°
